This is the latest recevied weather packets stored in our database for station/object N7TUG-8. If no packets are shown the sender has not sent any weather packets the latest 10 day(s).
| Time | Temp. | Humidity | Pressure | Rain* | Wind** | Luminosity | Snow |
|---|---|---|---|---|---|---|---|
| 1778119171 | 15° C | 78% | 1019.8 hPa | 0 mm | 2.24 m/s, 151° | - | - |
| 1778118682 | 15° C | 78% | 1019.8 hPa | 0 mm | 2.24 m/s, 145° | - | - |
| 1778118401 | 15° C | 78% | 1019.8 hPa | 0 mm | 2.24 m/s, 153° | - | - |
| 1778117581 | 15° C | 79% | 1019.8 hPa | 0 mm | 2.24 m/s, 146° | - | - |
| 1778116771 | 14.44° C | 79% | 1019.8 hPa | 0 mm | 2.68 m/s, 149° | - | - |
| 1778116001 | 15° C | 79% | 1019.8 hPa | 0 mm | 2.24 m/s, 147° | - | - |
| 1778115061 | 14.44° C | 79% | 1020 hPa | 0 mm | 2.68 m/s, 142° | - | - |
| 1778114737 | 14.44° C | 79% | 1020 hPa | 0 mm | 3.13 m/s, 144° | - | - |
| 1778114146 | 14.44° C | 79% | 1019.9 hPa | 0 mm | 2.68 m/s, 147° | - | - |
| 1778113227 | 14.44° C | 79% | 1020 hPa | 0 mm | 2.68 m/s, 142° | - | - |
| 1778112386 | 15° C | 78% | 1020 hPa | 0 mm | 1.79 m/s, 153° | - | - |
| 1778111503 | 14.44° C | 78% | 1020 hPa | 0 mm | 2.68 m/s, 156° | - | - |
| 1778110782 | 14.44° C | 78% | 1020.1 hPa | 0 mm | 2.24 m/s, 154° | - | - |
| 1778110706 | 14.44° C | 78% | 1020.1 hPa | 0 mm | 2.24 m/s, 154° | - | - |
| 1778109987 | 15° C | 77% | 1020.1 hPa | 0 mm | 1.79 m/s, 164° | - | - |
| 1778109776 | 14.44° C | 77% | 1020.1 hPa | 0 mm | 2.68 m/s, 171° | - | - |
| 1778109006 | 14.44° C | 78% | 1020.2 hPa | 0 mm | 2.24 m/s, 158° | - | - |
| 1778108186 | 14.44° C | 78% | 1020.2 hPa | 0 mm | 2.68 m/s, 160° | - | - |
| 1778107326 | 14.44° C | 78% | 1020.1 hPa | 0 mm | 2.68 m/s, 149° | - | - |
| 1778106802 | 14.44° C | 77% | 1020.1 hPa | 0 mm | 2.24 m/s, 158° | - | - |
| 1778106456 | 14.44° C | 77% | 1020.2 hPa | 0 mm | 2.68 m/s, 157° | - | - |
| 1778106002 | 15° C | 77% | 1020.3 hPa | 0 mm | 2.24 m/s, 179° | - | - |
| 1778105571 | 14.44° C | 77% | 1020.3 hPa | 0 mm | 2.68 m/s, 149° | - | - |
| 1778105162 | 14.44° C | 77% | 1020.3 hPa | 0 mm | 2.68 m/s, 152° | - | - |
| 1778104611 | 14.44° C | 76% | 1020.4 hPa | 0 mm | 3.58 m/s, 161° | - | - |
* Rain latest hour (hover to see other rain measurements)
** Current wind speed in m/s (hover to see current wind gust speed)